Gilze-Rijen, Netherlands

9:07 AM CEST on September 20, 2017 (GMT +0200)
Gilze-Rijen Air Base

Weather History for EHGR - April, 2014

Change the Weather History Date:

Wednesday, April 23, 2014

  Actual Average Record
Temperature  
Mean Temperature 55 °F -  
Max Temperature 69 °F 62 °F 80 °F (2011)
Min Temperature 41 °F 44 °F 26 °F (1997)
Degree Days  
Heating Degree Days 10    
Growing Degree Days 5 (Base 50)    
Moisture  
Dew Point 46 °F    
Average Humidity 78    
Maximum Humidity 100    
Minimum Humidity 31    
Precipitation  
Precipitation 0.00 in - - ()
Sea Level Pressure  
Sea Level Pressure 30.06 in    
Wind  
Wind Speed 3 mph ()    
Max Wind Speed 9 mph    
Max Gust Speed -    
Visibility 6.2 miles    
Events      
Averages and records for this station are not official NWS values.
T = Trace of Precipitation, MM = Missing Value Source: Averaged Metar Reports

Daily Weather History Graph

Daily Weather History Graph

Search for Another Location

Airport or City:

Trip Planner

Search our weather history database for the weather conditions in past years. The results will help you decide how hot, cold, wet, or windy it might be!

Date:

Astronomy

Apr. 23, 2014 Rise Set
Actual Time 6:28 AM CEST 8:50 PM CEST
Civil Twilight 5:51 AM CEST 9:27 PM CEST
Nautical Twilight 5:04 AM CEST 10:13 PM CEST
Astronomical Twilight 4:10 AM CEST 11:08 PM CEST
Moon 3:33 AM CEST (4/23) 1:58 PM CEST (4/23)
Length of Visible Light 15h 35m
Length of Day
14h 22m
Last Quarter, 38% of the Moon is Illuminated
Apr 23
Last Quarter
Apr 29
New
May 7
First Quarter
May 14
Full
May 21
Last Quarter

Hourly Weather History & Observations

Time (CEST) Temp. Windchill Dew Point Humidity Pressure Visibility Wind Dir Wind Speed Gust Speed Precip Events Conditions
12:00 AM 45 °F - 42 °F 86% 30.00 in 19 mi SSW 2.2 mph - -  
12:25 AM 46.4 °F 44.3 °F 42.8 °F 87% 30.01 in 6.2 mi SSW 4.6 mph - N/A   Unknown
12:55 AM 46.4 °F - 44.6 °F 93% 30.01 in 6.2 mi South 2.3 mph - N/A   Unknown
1:00 AM 45 °F - 45 °F 98% 30.01 in 14 mi SSW 2.2 mph - -  
1:25 AM 42.8 °F 41.1 °F 41.0 °F 93% 30.01 in 6.2 mi SSW 3.5 mph - N/A   Unknown
1:55 AM 42.8 °F - 42.8 °F 100% 30.01 in 6.2 mi East 2.3 mph - N/A   Unknown
2:00 AM 43 °F - 43 °F 99% 30.02 in 16 mi East 2.2 mph - -   Partly Cloudy
2:25 AM 44.6 °F - 42.8 °F 93% 30.01 in 6.2 mi SSW 2.3 mph - N/A   Unknown
2:55 AM 42.8 °F - 41.0 °F 93% 30.01 in 6.2 mi East 2.3 mph - N/A   Unknown
3:00 AM 42 °F - 42 °F 100% 30.03 in 11 mi East 2.2 mph - -  
3:10 AM 42.8 °F - 42.8 °F 100% 30.01 in 3.7 mi East 2.3 mph - N/A   Mist
3:11 AM 42.8 °F - 42.8 °F 100% 30.01 in 6.2 mi ENE 2.3 mph - N/A   Unknown
3:25 AM 42.8 °F - 42.8 °F 100% 30.01 in 3.7 mi East 2.3 mph - N/A   Mist
3:51 AM 42.8 °F 41.1 °F 42.8 °F 100% 30.01 in 6.2 mi East 3.5 mph - N/A   Unknown
3:55 AM 42.8 °F 41.1 °F 42.8 °F 100% 30.01 in 6.2 mi East 3.5 mph - N/A   Unknown
3:59 AM 42.8 °F - 42.8 °F 100% 30.01 in 3.7 mi ENE 2.3 mph - N/A   Partly Cloudy
4:00 AM 42 °F - 42 °F 100% 30.04 in 4 mi East 2.2 mph - -   Mist
4:08 AM 42.8 °F - 41.0 °F 93% 30.04 in 5.6 mi East 1.2 mph - N/A   Partly Cloudy
4:21 AM 41.0 °F - 41.0 °F 100% 30.04 in 6.2 mi East 1.2 mph - N/A   Overcast
4:25 AM 42.8 °F - 41.0 °F 93% 30.04 in 6.2 mi ENE 2.3 mph - N/A   Overcast
4:55 AM 42.8 °F - 42.8 °F 100% 30.04 in 6.2 mi SSE 1.2 mph - N/A   Overcast
5:00 AM 44 °F - 43 °F 93% 30.05 in 6 mi South 2.2 mph - -   Overcast
5:25 AM 44.6 °F - 44.6 °F 100% 30.04 in 6.2 mi SE 2.3 mph - N/A   Overcast
5:36 AM 42.8 °F - 42.8 °F 100% 30.04 in 4.3 mi East 2.3 mph - N/A   Overcast
5:45 AM 42.8 °F - 42.8 °F 100% 30.04 in 5.0 mi SSE 1.2 mph - N/A   Overcast
5:50 AM 42.8 °F - 42.8 °F 100% 30.04 in 4.3 mi SSE 1.2 mph - N/A   Overcast
5:55 AM 44.6 °F - 42.8 °F 93% 30.04 in 5.0 mi SSE 2.3 mph - N/A   Overcast
6:00 AM 44 °F - 43 °F 96% 30.06 in 7 mi SSE 2.2 mph - -   Mostly Cloudy
6:07 AM 42.8 °F - 42.8 °F 100% 30.04 in 6.2 mi South 2.3 mph - N/A   Scattered Clouds
6:12 AM 44.6 °F - 44.6 °F 100% 30.04 in 4.3 mi SSW 2.3 mph - N/A   Mostly Cloudy
6:25 AM 44.6 °F - 44.6 °F 100% 30.04 in 3.1 mi South 1.2 mph - N/A   Overcast
6:28 AM 44.6 °F - 44.6 °F 100% 30.04 in 1.7 mi Calm Calm - N/A   Overcast
6:30 AM 44.6 °F - 44.6 °F 100% 30.04 in - Calm Calm - N/A   Mostly Cloudy
6:39 AM 42.8 °F - 42.8 °F 100% 30.04 in 1.8 mi Calm Calm - N/A   Partly Cloudy
6:48 AM 44.6 °F - 44.6 °F 100% 30.04 in - North 1.2 mph - N/A   Mostly Cloudy
6:55 AM 44.6 °F - 42.8 °F 93% 30.04 in 2.5 mi NW 1.2 mph - N/A   Mostly Cloudy
7:00 AM 43 °F - 42 °F 97% 30.06 in 3 mi 2.2 mph - -   Mist
7:00 AM 42.8 °F - 42.8 °F 100% 30.04 in 3.1 mi South 1.2 mph - N/A   Mostly Cloudy
7:13 AM 44.6 °F 43.1 °F 44.6 °F 100% 30.04 in 4.3 mi South 3.5 mph - N/A   Mist
7:25 AM 44.6 °F 43.1 °F 44.6 °F 100% 30.06 in 3.7 mi SW 3.5 mph - N/A   Mist
7:45 AM 44.6 °F - 42.8 °F 93% 30.06 in 3.1 mi SSE 2.3 mph - N/A   Partly Cloudy
7:55 AM 44.6 °F 43.1 °F 44.6 °F 100% 30.06 in 3.1 mi South 3.5 mph - N/A   Partly Cloudy
8:00 AM 44 °F - 44 °F 100% 30.08 in 3 mi SSE 4.5 mph - -   Mist
8:25 AM 48.2 °F - 48.2 °F 100% 30.06 in 3.1 mi SW 2.3 mph - N/A   Partly Cloudy
8:55 AM 51.8 °F - 48.2 °F 88% 30.06 in 3.7 mi SW 2.3 mph - N/A   Partly Cloudy
9:00 AM 52 °F - 49 °F 86% 30.09 in 4 mi SW 2.2 mph - -   Mist
9:05 AM 51.8 °F - 48.2 °F 88% 30.06 in 5.0 mi WSW 2.3 mph - N/A   Mist
9:16 AM 53.6 °F - 50.0 °F 88% 30.06 in 5.0 mi West 1.2 mph - N/A   Partly Cloudy
9:25 AM 55.4 °F - 50.0 °F 82% 30.06 in 5.0 mi WNW 2.3 mph - N/A   Scattered Clouds
9:55 AM 57.2 °F - 50.0 °F 77% 30.09 in 5.6 mi SW 2.3 mph - N/A   Haze
10:00 AM 58 °F - 50 °F 68% 30.10 in 6 mi WSW 2.2 mph - -   Light Haze
10:25 AM 60.8 °F - 51.8 °F 72% 30.09 in 6.2 mi South 3.5 mph - N/A   Unknown
10:55 AM 60.8 °F - 50.0 °F 68% 30.09 in 6.2 mi WSW 3.5 mph - N/A   Unknown
11:00 AM 62 °F - 50 °F 55% 30.11 in 7 mi 2.2 mph - -  
11:25 AM 62.6 °F - 48.2 °F 59% 30.09 in 6.2 mi SSW 4.6 mph - N/A   Partly Cloudy
11:55 AM 64.4 °F - 48.2 °F 56% 30.09 in 6.2 mi South 5.8 mph - N/A   Partly Cloudy
12:00 PM 63 °F - 49 °F 51% 30.11 in 11 mi South 4.5 mph - -   Scattered Clouds
12:25 PM 64.4 °F - 48.2 °F 56% 30.09 in 6.2 mi ENE 2.3 mph - N/A   Mostly Cloudy
12:55 PM 66.2 °F - 48.2 °F 52% 30.09 in 6.2 mi SSE 4.6 mph - N/A   Mostly Cloudy
1:00 PM 65 °F - 47 °F 42% 30.10 in 13 mi South 4.5 mph - -   Scattered Clouds
1:25 PM 66.2 °F - 50.0 °F 56% 30.09 in 6.2 mi SSW 3.5 mph - N/A   Overcast
1:55 PM 68.0 °F - 48.2 °F 49% 30.09 in 6.2 mi South 4.6 mph - N/A   Mostly Cloudy
2:00 PM 67 °F - 47 °F 37% 30.09 in 17 mi SSW 6.7 mph - -   Partly Cloudy
2:25 PM 66.2 °F - 48.2 °F 52% 30.09 in 6.2 mi SW 4.6 mph - N/A   Mostly Cloudy
2:55 PM 66.2 °F - 46.4 °F 49% 30.09 in 6.2 mi South 4.6 mph - N/A   Mostly Cloudy
3:00 PM 67 °F - 46 °F 36% 30.09 in 19 mi SSW 4.5 mph - -   Mostly Cloudy
3:25 PM 68.0 °F - 44.6 °F 43% 30.06 in 6.2 mi SSE 4.6 mph - N/A   Mostly Cloudy
3:55 PM 68.0 °F - 44.6 °F 43% 30.06 in 6.2 mi West 2.3 mph - N/A   Mostly Cloudy
4:00 PM 67 °F - 45 °F 34% 30.08 in 19 mi 2.2 mph - -   Mostly Cloudy
4:25 PM 68.0 °F - 46.4 °F 46% 30.06 in 6.2 mi SSE 2.3 mph - N/A   Overcast
4:29 PM 66.2 °F - 46.4 °F 49% 30.06 in 6.2 mi SSE 4.6 mph - N/A   Overcast
4:55 PM 68.0 °F - 46.4 °F 46% 30.06 in 6.2 mi South 5.8 mph - N/A   Partly Cloudy
5:00 PM 67 °F - 46 °F 36% 30.08 in 25 mi SW 4.5 mph - -   Mostly Cloudy
5:25 PM 69.8 °F - 44.6 °F 40% 30.06 in 6.2 mi WSW 4.6 mph - N/A   Scattered Clouds
5:55 PM 69.8 °F - 44.6 °F 40% 30.06 in 6.2 mi WSW 5.8 mph - N/A   Unknown
6:00 PM 68 °F - 44 °F 31% 30.07 in 22 mi SW 6.7 mph - -   Scattered Clouds
6:25 PM 68.0 °F - 44.6 °F 43% 30.06 in 6.2 mi West 6.9 mph - N/A   Scattered Clouds
6:55 PM 66.2 °F - 46.4 °F 49% 30.06 in 6.2 mi WNW 5.8 mph - N/A   Unknown
7:00 PM 65 °F - 46 °F 39% 30.07 in 25 mi WNW 4.5 mph - -   Scattered Clouds
7:25 PM 66.2 °F - 48.2 °F 52% 30.06 in 6.2 mi NNW 6.9 mph - N/A   Mostly Cloudy
7:55 PM 64.4 °F - 48.2 °F 56% 30.06 in 6.2 mi NNW 6.9 mph - N/A   Unknown
8:00 PM 64 °F - 48 °F 45% 30.08 in 22 mi NNW 6.7 mph - -   Partly Cloudy
8:25 PM 60.8 °F - 50.0 °F 68% 30.06 in 6.2 mi North 9.2 mph - N/A   Partly Cloudy
8:55 PM 59.0 °F - 50.0 °F 72% 30.09 in 6.2 mi North 8.1 mph - N/A   Unknown
9:00 PM 58 °F - 50 °F 66% 30.10 in 7 mi North 6.7 mph - -  
9:25 PM 57.2 °F - 50.0 °F 77% 30.09 in 6.2 mi North 5.8 mph - N/A   Scattered Clouds
9:55 PM 53.6 °F - 48.2 °F 82% 30.09 in 6.2 mi NNE 4.6 mph - N/A   Unknown
10:00 PM 54 °F - 49 °F 76% 30.11 in 6 mi NNE 4.5 mph - -   Light Haze
10:25 PM 53.6 °F - 48.2 °F 82% 30.09 in 5.6 mi North 3.5 mph - N/A   Mist
10:43 PM 53.6 °F - 48.2 °F 82% 30.09 in 4.3 mi NNE 1.2 mph - N/A   Mostly Cloudy
10:55 PM 53.6 °F - 48.2 °F 82% 30.09 in 3.7 mi North 1.2 mph - N/A   Mostly Cloudy
11:00 PM 53 °F - 49 °F 82% 30.11 in 3 mi NW 2.2 mph - -   Mist
11:25 PM 50.0 °F - 48.2 °F 94% 30.09 in 3.7 mi NNW 1.2 mph - N/A   Mist
11:33 PM 50.0 °F - 48.2 °F 94% 30.09 in - WNW 1.2 mph - N/A   Mist
11:43 PM 50.0 °F - 48.2 °F 94% 30.09 in 3.1 mi WNW 2.3 mph - N/A   Mist
11:51 PM 50.0 °F - 48.2 °F 94% 30.09 in - NW 2.3 mph - N/A   Mist
11:55 PM 50.0 °F - 48.2 °F 94% 30.09 in - NW 1.2 mph - N/A   Mist
11:59 PM 50.0 °F - 46.4 °F 87% 30.09 in 1.9 mi NW 1.2 mph - N/A   Mist